Regional Weather Roundup
Issued by NWS

Home | Current Version | Previous Version | Graphics & Text | Print | Product List | Glossary On
Versions: 1 2 3 4 5 6 7 8 9 10 11 12 13 14 15 16 17 18 19 20 21 22 23 24 25 26 27 28 29 30 31 32 33 34 35 36 37 38 39 40 41 42 43 44 45 46 47 48 49 50
000
ASUS43 KMPX 251010
RWRMN
WEATHER ROUNDUP FOR MINNESOTA
NATIONAL WEATHER SERVICE TWIN CITIES/CHANHASSEN MN
400 AM CST THU DEC 25 2014


NOTE: "FAIR" INDICATES FEW OR NO CLOUDS BELOW 12,000 FEET WITH NO
SIGNIFICANT WEATHER AND/OR OBSTRUCTIONS TO VISIBILITY. N/A MEANS
CURRENT SKY AND/OR WEATHER CONDITIONS ARE NOT AVAILABLE.

MNZ060>063-068>070-251100-
   Twin Cities Metro

CITY           SKY/WX    TMP DP  RH WIND       PRES   REMARKS
TWIN CITIES    CLOUDY    30  25  81 S9        29.63S WCI  22
ST PAUL        CLOUDY    30  27  88 S7        29.64F WCI  23
CRYSTAL        CLOUDY    31  27  85 S8        29.60F WCI  23
BLAINE         CLOUDY    32  30  93 S10       29.60S WCI  24
LAKEVILLE      CLOUDY    28  27  93 S7        29.63S WCI  21
EDEN PRAIRIE   CLOUDY    30  26  85 S10       29.62R WCI  21
SOUTH ST PAUL  CLOUDY    31  28  86 S6        29.63F WCI  25
LAKE ELMO      CLOUDY    32  28  86 S9        29.63F WCI  24
$$
MNZ001>005-007-008-013>017-022>024-027-028-251100-
   Northwest Minnesota

CITY           SKY/WX    TMP DP  RH WIND       PRES   REMARKS
BEMIDJI        CLOUDY    29  27  92 SW6       29.48S WCI  23
HALLOCK        CLOUDY    30  27  86 W8        29.48R WCI  23
ROSEAU         CLOUDY    30  27  86 W9        29.45R WCI  22
WARROAD        CLOUDY    28  27  93 W7        29.45R WCI  21
THIEF RVR FALL CLOUDY    28  27  93 W12       29.49R WCI  18
CROOKSTON      CLOUDY    28  27  93 NW10      29.52R WCI  19
FOSSTON        CLOUDY    27  27 100 SW12      29.48F WCI  16
DETROIT LAKES  CLOUDY    30  30 100 SW7       29.51S WCI  23
MOORHEAD       MOCLDY    28  28 100 S6        29.53S WCI  22
PARK RAPIDS    CLOUDY    30  26  85 W9        29.49R WCI  22
MAHNOMEN       CLOUDY    29  28  94 SW10      29.49S WCI  20
$$
MNZ006-009>011-018-025>026-251100-
   North Central Minnesota

CITY           SKY/WX    TMP DP  RH WIND       PRES   REMARKS
BAUDETTE       CLOUDY    29  27  92 SW7       29.44R FOG     WCI  22
FLAG ISLAND    CLOUDY    28  27  93 SW8       29.42R FOG     WCI  20
INTL FALLS     CLOUDY    29  26  89 W8        29.45R WCI  21
WASKISH        CLOUDY    30  28  93 SW12      29.46S WCI  21
BIG FORK       CLOUDY    30  27  86 SW8       29.48R WCI  23
LONGVILLE      CLOUDY    30  27  86 SW7       29.51R WCI  23
GRAND RAPIDS   CLOUDY    30  25  80 SW7       29.49R WCI  23
CRANE LAKE     CLOUDY    30  28  93 CALM      29.48R
ORR            CLOUDY    30  27  86 SW7       29.44S WCI  23
COOK           CLOUDY    30  28  93 SW6       29.47S WCI  24
WALKER         CLOUDY    29  26  88 SW12      29.49S WCI  19
$$
MNZ012-019>021-037-251100-
   Northeast Minnesota

CITY           SKY/WX    TMP DP  RH WIND       PRES   REMARKS
DULUTH         CLOUDY    31  26  82 SW14      29.50R WCI  21
ELY            CLOUDY    30  28  93 SW5       29.46R WCI  25
HIBBING        CLOUDY    31  26  82 SW6       29.49R WCI  25
EVELETH        CLOUDY    32  30  93 SW8       29.49S WCI  25
DULUTH HARBOR  CLOUDY    34  28  80 SW12      29.55R WCI  25
TWO HARBORS    CLOUDY    34  28  80 SW8       29.49S WCI  27
SILVER BAY       N/A    N/A N/A N/A S5        29.49R
GRAND MARAIS     N/A     34  31  88 W6        29.48F WCI  29
G MARAIS ARPRT CLOUDY    27  25  93 CALM      29.44S
$$
MNZ029>031-032-039>041-046>048-054>057-064-251100-
   West Central Minnesota

CITY           SKY/WX    TMP DP  RH WIND       PRES   REMARKS
FERGUS FALLS   CLOUDY    28  28 100 SW7       29.57S FOG     WCI  21
WHEATON        CLOUDY    28  27  93 S6        29.57S WCI  22
MORRIS         CLOUDY    28  27  93 S6        29.55R WCI  22
ALEXANDRIA     CLOUDY    28  26  92 SW10      29.54S WCI  19
ELBOW LAKE     CLOUDY    28  27  96 S6        29.54S WCI  22
WADENA         CLOUDY    28  27  93 SW8       29.51S WCI  20
GLENWOOD       MOCLDY    28  27  93 S9        29.55S WCI  20
APPLETON       CLOUDY    30  27  86 S7        29.57R WCI  23
BENSON         CLOUDY    30  27  86 SW9       29.57R WCI  22
ORTONVILLE     CLOUDY    30  25  80 S3        29.55S
MADISON          N/A     34  30  86 S5        29.56S WCI  30
WILLMAR        FAIR      30  27  86 S5        29.59S WCI  25
$$
MNZ033>034-036-042>043-049>051-058-059-251100-
   Central Minnesota

CITY           SKY/WX    TMP DP  RH WIND       PRES   REMARKS
ST CLOUD       MOCLDY    32  26  78 S9        29.57S WCI  24
SAUK CENTRE    CLOUDY    28  27  93 S10       29.55S WCI  19
PAYNESVILLE    CLOUDY    27  26  96 S9        29.58R WCI  17
AITKIN         CLOUDY    34  27  75 SW6       29.51R WCI  29
PINE RIVER     CLOUDY    28  27  93 SW5       29.55R WCI  23
BRAINERD       CLOUDY    30  26  85 SW12      29.53S WCI  20
STAPLES        CLOUDY    28  27  93 SW6       29.52S WCI  22
LONG PRAIRIE   CLOUDY    28  27  93 W6        29.55R WCI  22
LITTLE FALLS   PTCLDY    30  27  86 SW3       29.56S
LITCHFIELD     CLOUDY    30  28  93 S3        29.59R
BUFFALO        CLOUDY    30  26  88 S6        29.61R WCI  24
MAPLE LAKE     CLOUDY    31  29  93 S7        29.60R WCI  24
$$
MNZ037-044-045-052-053-251100-
   East Central Minnesota

CITY           SKY/WX    TMP DP  RH WIND       PRES   REMARKS
PRINCETON      CLOUDY    30  28  93 S9        29.58S WCI  22
MORA           CLOUDY    32  28  86 SW7       29.58S WCI  26
CAMBRIDGE      MOCLDY    32  25  74 S8        29.57S WCI  25
RUSH CITY      CLOUDY    31  28  90 S5        29.58S WCI  26
MOOSE LAKE     CLOUDY    32  28  86 SW8       29.52S WCI  25
HINCKLEY       CLOUDY    32  30  93 CALM      29.56S
CLOQUET        CLOUDY    30  28  93 SW9       29.51S WCI  22
MCGREGOR       CLOUDY    32  30  93 SW8       29.52S WCI  25
$$
MNZ071>073-080-081-089-090-097-098-251100-
   Southwest Minnesota

CITY           SKY/WX    TMP DP  RH WIND       PRES   REMARKS
MONTEVIDEO     MOCLDY    28  28 100 SW7       29.58S WCI  21
GRANITE FALLS  CLOUDY    29  27  92 S6        29.59F WCI  23
CANBY          CLOUDY    30  27  88 CALM      29.56F
MARSHALL       PTCLDY    28  25  86 S5        29.57S WCI  23
REDWOOD FALLS  CLOUDY    30  27  88 S10       29.59S WCI  21
OLIVIA         CLOUDY    28  27  93 S8        29.59S WCI  20
PIPESTONE      MOCLDY    27  27 100 S7        29.54R WCI  19
WINDOM         CLOUDY    28  27  93 S9        29.58F WCI  20
WORTHINGTON    CLOUDY    27 -20  12 S12       29.57F WCI  16
JACKSON        CLOUDY    30  28  93 S9G18     29.59F WCI  22
TRACY          CLOUDY    30  28  92 S7        29.56S WCI  23
SLAYTON        CLOUDY    28  27  95 S13       29.56S WCI  18
$$
MNZ065>067-074>077-082>085-091>093-251100-
   South Central Minnesota

CITY           SKY/WX    TMP DP  RH WIND       PRES   REMARKS
MANKATO        CLOUDY    28  23  80 S15       29.63S WCI  17
NEW ULM        CLOUDY    28  27  93 S8        29.62R WCI  20
ST JAMES       CLOUDY    30  28  93 S10       29.62S WCI  21
FAIRMONT       CLOUDY    28  25  86 S16       29.61F WCI  17
GLENCOE        CLOUDY    30  29  94 S8        29.61R WCI  23
FARIBAULT      CLOUDY    28  27  93 S10       29.65S WCI  19
OWATONNA       CLOUDY    28  27  93 S16       29.65S FOG     WCI  17
ALBERT LEA     CLOUDY    28  27  93 S13       29.64F WCI  18
$$
MNZ078>079-086>088-094>096-251100-
   Southeast Minnesota

CITY           SKY/WX    TMP DP  RH WIND       PRES   REMARKS
ROCHESTER      CLOUDY    27  25  92 SW15      29.66F WCI  15
RED WING       CLOUDY    30  28  93 SW7       29.65S WCI  23
STANTON        CLOUDY    31  27  86 SW12      29.63F WCI  22
DODGE CENTER   CLOUDY    27  27 100 SW17      29.65R WCI  14
WINONA         CLOUDY    32  28  86 W6        29.70R WCI  26
AUSTIN         CLOUDY    27  27 100 SW13      29.67S WCI  16
PRESTON        CLOUDY    27  25  92 SW10      29.68S WCI  17
$$
ABBREVIATIONS USED IN REMARKS
   TC - TEMPERATURES IN CELSIUS
  WCI - WIND CHILL INDEX
   HX - HEAT INDEX
  VSB - VISIBILITY
$$



USA.gov is the U.S. government's official web portal to all federal, state and local government web resources and services.